Location: Fiddletown
(38.4917°N, 120.6633°W)
Time: 22:37:15
(UTC-07:00)

Envisat - Visible Passes

Search period start: 25 May 2015 00:00
Search period end: 04 June 2015 00:00
Orbit: 765 x 766 km, 98.3° (Epoch: 25 May)

Date Brightness Start Highest point End Pass type
(mag) Time Alt. Az. Time Alt. Az. Time Alt. Az.
25 May 4.3 21:06:58 11° ESE 21:10:35 24° ENE 21:14:39 10° NNE visible
25 May 4.1 22:47:10 25° SW 22:49:26 38° W 22:54:08 10° NNW visible
26 May 2.9 22:10:03 29° SSE 22:12:43 88° WSW 22:17:50 10° NNW visible
27 May 3.6 21:32:56 19° SE 21:36:11 41° ENE 21:40:58 10° N visible
27 May 4.9 23:13:09 16° SW 23:15:26 21° W 23:19:11 10° NW visible
28 May 4.6 20:56:24 10° ESE 20:59:50 19° ENE 21:03:26 10° NNE visible
28 May 3.7 22:36:02 27° SSW 22:38:32 48° W 22:43:27 10° NNW visible
29 May 3.0 21:58:55 25° SSE 22:01:53 74° ENE 22:06:58 10° N visible
29 May 5.5 23:39:47 10° WSW 23:41:34 11° W 23:43:00 10° WNW visible
30 May 3.9 21:21:49 14° SE 21:25:24 33° ENE 21:29:56 10° N visible
30 May 4.6 23:02:02 19° SW 23:04:28 27° W 23:08:42 10° NW visible
31 May 4.8 20:46:19 10° E 20:49:05 15° ENE 20:52:04 10° NNE visible
31 May 3.3 22:24:55 27° S 22:27:39 62° W 22:32:42 10° NNW visible
01 Jun 3.2 21:47:48 21° SE 21:51:04 58° ENE 21:56:03 10° N visible
01 Jun 5.3 23:28:01 11° WSW 23:30:33 15° W 23:33:16 10° WNW visible
02 Jun 4.2 21:10:42 11° ESE 21:14:37 26° ENE 21:18:50 10° NNE visible
02 Jun 4.3 22:50:55 21° SSW 22:53:32 34° W 22:58:07 10° NNW visible
03 Jun 3.0 22:13:48 25° S 22:16:48 79° W 22:21:54 10° NNW visible
